Location: Frickingen
(48.7310°N, 10.3958°E)
Time: 15:53:07
(UTC+00:00)

Daily predictions for brighter satellites

Satellite Brightness Start Highest point End
(mag) Time Altitude Azimuth Time Altitude Azimuth Time Altitude Azimuth
ERS-1 Rocket 3.2 19:53:26 10° SSE 19:58:22 59° ENE 20:03:19 10° N
Cosmos 1763 Rocket 3.8 19:53:28 10° NNW 19:58:43 70° WSW 20:03:51 10° SSE
Cosmos 1553 Rocket 4.0 19:54:24 10° N 20:00:36 84° E 20:06:51 10° S
S3M 4.4 19:56:59 10° N 20:03:13 51° ENE 20:09:20 10° SSE
Cosmos 1626 4.4 20:00:45 10° SW 20:03:22 23° WNW 20:06:01 10° NNW
Spot 2 Rocket 3.9 20:00:52 10° SE 20:05:46 52° ENE 20:10:42 10° N
Cosmos 1441 Rocket 3.0 20:09:55 10° N 20:13:32 80° E 20:17:09 10° SSE
Okean-O 3.6 20:09:39 10° S 20:13:53 46° W 20:18:09 10° NNW
Cosmos 2360 Rocket 3.1 20:09:44 10° NNW 20:15:03 38° NE 20:20:19 10° ESE
ATLAS 2AS CENTAUR R/B 3.3 20:10:03 10° NW 20:16:46 49° NE 20:23:13 10° ESE
Cosmos 2266 Rocket 4.3 20:12:00 10° SSE 20:18:08 55° E 20:24:22 10° NNE
Cosmos 1733 Rocket 4.3 20:14:48 10° N 20:18:38 28° ENE 20:22:27 10° SE
Cosmos 1300 3.7 20:16:55 10° NNE 20:20:03 28° ENE 20:23:03 11° SE
USA 245 3.2 20:19:03 10° SSE 20:22:26 89° NE 20:26:45 10° NNW
Cosmos 1674 3.8 20:20:05 10° SSW 20:23:23 41° WNW 20:26:43 10° N
Cosmos 2333 Rocket 3.1 20:18:03 10° NNW 20:23:29 41° NE 20:28:54 10° ESE
SL-16 R/B 2.3 20:18:36 10° NNW 20:24:18 78° ENE 20:29:51 11° SSE
Cosmos 1515 Rocket 4.4 20:20:29 10° SSW 20:24:43 53° WNW 20:28:59 10° N
In-Cosmos 22 4.2 20:19:25 10° S 20:25:00 67° E 20:30:29 10° NNE
Cosmos 1908 3.3 20:22:23 10° NNW 20:25:59 69° W 20:29:34 10° S
Cosmos 1470 3.5 20:22:34 10° NNW 20:26:08 47° W 20:29:41 10° SSW
Cosmos 468 Rocket 4.4 20:22:24 10° NNW 20:27:34 60° WSW 20:32:38 10° S
Atlas Centaur 2 4.3 20:23:38 10° SW 20:29:18 20° S 20:34:35 11° SE
Cosmos 2082 Rocket 3.1 20:23:45 10° SW 20:29:21 55° NW 20:34:57 10° NNE
Ariane Rocket 3.0 20:25:15 10° SSE 20:30:20 79° ENE 20:35:27 10° NNW
Cosmos 2228 Rocket 3.9 20:28:13 10° SSE 20:32:23 37° E 20:36:36 10° NNE
SL-14 R/B 4.0 20:29:37 11° SSE 20:32:52 33° E 20:36:20 10° NNE
RESURS DK-1 2.5 20:31:49 10° NNW 20:35:53 65° ENE 20:39:23 13° SE
Okean O Rocket 4.2 20:33:38 10° SW 20:36:27 16° W 20:39:14 10° NW
Tiangong 0.1 20:37:02 10° SW 20:38:33 13° SSW 20:39:45 11° S
Cosmos 1869 Rocket 3.8 20:36:25 10° NNW 20:40:51 72° W 20:45:17 10° S
Cosmos 1850 Rocket 4.4 20:36:44 10° S 20:41:39 43° ESE 20:46:34 10° NE
Cosmos 1346 Rocket 3.3 20:39:45 10° N 20:43:30 45° ENE 20:46:26 15° SE
Terra 2.1 20:39:58 10° S 20:44:38 65° WSW 20:49:20 10° NNW
SPOT 3 Rocket 3.6 20:40:43 10° SSE 20:45:48 85° WSW 20:51:01 10° NNW
USA 281 4.1 20:42:18 10° ESE 20:48:21 42° NE 20:54:27 10° NNW
Timation 1 Rocket 4.4 20:44:19 10° SSW 20:50:11 62° ESE 20:56:04 10° NE
EXPRESS MD2 1.8 20:50:49 10° WSW 20:53:30 77° SSE 20:55:40 10° ENE
Meteor 1-22 Rocket 4.5 20:49:12 10° NNW 20:54:47 71° W 21:00:32 10° S
Cosmos 2315 Rocket 4.1 20:50:02 10° N 20:56:27 83° E 21:02:15 13° S
Cosmos 1758 3.2 20:54:10 10° N 20:58:05 85° E 21:01:09 16° S
Cosmos 1741 Rocket 4.1 20:55:37 10° S 21:00:47 59° ESE 21:06:01 10° NNE
Landsat 4 4.4 21:00:47 12° S 21:03:47 43° W 21:07:05 10° NNW
Cosmos 968 Rocket 3.8 20:59:28 12° S 21:03:57 46° ESE 21:08:54 10° NNE
Cosmos 2322 Rocket 2.3 21:02:28 10° NNW 21:08:10 79° WSW 21:12:36 17° SSE
Cosmos 1814 Rocket 4.3 21:03:06 10° NNW 21:08:21 59° ENE 21:12:20 17° SE
Cosmos 1356 Rocket 3.4 21:06:07 13° S 21:09:51 77° E 21:14:05 10° NNE
SeaSat 1 3.9 21:08:01 10° SSW 21:12:14 28° WSW 21:16:29 10° NW
Cosmos 1862 Rocket 3.5 21:11:25 15° S 21:14:55 71° E 21:19:21 10° NNE
Meteor 1-21 4.3 21:13:03 12° S 21:18:30 78° E 21:24:20 10° NNE
Okean 2 4.0 21:19:14 22° SE 21:21:17 37° E 21:25:01 10° NNE
USA 234 3.5 21:15:47 10° NE 21:22:19 76° NNW 21:28:50 10° WSW
BREEZE-M DEB (TANK) 4.3 21:01:33 10° WSW 21:23:06 88° S 21:27:56 10° E
Cosmos 1400 Rocket 4.1 21:23:10 10° SW 21:26:48 37° WNW 21:30:25 10° N
Cosmos 1455 2.7 21:24:38 10° N 21:27:58 39° ENE 21:29:35 24° SE
SL-4 R/B 2.7 21:25:07 10° WNW 21:28:58 55° N 21:33:04 10° E
COSMOS 2428 3.8 21:23:44 10° NNW 21:29:00 37° NE 21:33:46 12° ESE
COSMOS 2455 4.5 21:29:10 14° ESE 21:30:50 15° ESE 21:34:11 10° ENE
Meteor 2-10 Rocket 4.5 21:26:17 10° NNW 21:31:38 46° W 21:36:16 13° SSW
Landsat 5 3.8 21:30:21 10° N 21:34:17 62° WNW 21:38:06 11° SSW
Cosmos 2219 Rocket 2.3 21:29:52 10° NNW 21:35:34 74° ENE 21:39:27 21° SE
Cosmos 1707 Rocket 4.0 21:31:38 12° SSW 21:35:46 61° WNW 21:40:11 10° N
ATLAS CENTAUR R/B 0.9 21:35:36 10° SW 21:39:05 88° NW 21:42:43 10° NE
ARIANE 5 R/B 2.7 21:39:26 25° SSE 21:41:53 65° ENE 21:46:12 10° N
Cosmos 1315 Rocket 2.8 21:39:54 26° S 21:42:00 63° E 21:45:58 10° NNE
SJ 16-02 1.2 21:39:28 19° SSW 21:42:28 75° ESE 21:46:49 10° NNE
Meteor 1-4 Rocket 1.9 21:41:42 32° SSW 21:42:57 89° W 21:45:58 10° NNE
SL-27 R/B 2.6 21:41:51 18° SW 21:43:42 50° WNW 21:46:26 10° NNE
Okean 3 3.6 21:41:42 18° SSW 21:44:44 70° W 21:48:55 10° N
Cosmos 1953 2.1 21:41:52 10° N 21:45:43 76° E 21:47:31 30° SSE
Cosmos 1241 Rocket 4.5 21:42:42 12° SSW 21:48:23 61° ESE 21:54:32 10° NE
Aureole 3 3.9 21:49:38 17° SSW 21:52:28 59° WNW 21:57:10 10° N
Cosmos 1733 Rocket 4.4 21:52:26 10° NNW 21:56:22 32° W 21:59:30 14° SSW
Nadezhda 1 Rocket 4.2 21:51:21 10° N 21:57:38 64° ENE 22:01:33 24° SSE
Cosmos 2360 Rocket 3.0 21:53:47 10° NW 21:59:06 42° WSW 22:02:32 20° SSW
H-2A R/B 2.8 21:59:14 27° SE 22:01:23 59° ENE 22:05:37 10° N
GP-B 3.0 21:57:47 10° N 22:02:13 80° E 22:04:27 29° S
Cosmos 839 Rocket 4.2 21:56:04 10° NW 22:02:57 66° WSW 22:06:44 24° SSE
ATLAS 2AS CENTAUR R/B 3.1 22:01:12 10° NW 22:07:42 49° WSW 22:11:32 24° S
SL-16 R/B 4.1 22:03:54 10° WNW 22:07:43 19° W 22:11:32 10° SW
Cosmos 2333 Rocket 3.1 22:02:26 10° NW 22:07:46 40° WSW 22:11:07 21° SSW
Cosmos 1908 Rocket 3.6 22:04:38 10° NNW 22:08:58 70° W 22:11:05 29° S
Cosmos 1782 Rocket 3.6 22:07:14 10° N 22:11:34 67° ENE 22:13:29 32° SSE
BREEZE-M DEB (TANK) 3.5 22:10:51 10° W 22:13:49 81° N 22:22:18 10° E
Okean 1-7 3.6 22:13:21 20° SSW 22:16:10 54° WNW 22:20:25 10° N
Atlas Centaur 2 4.4 22:12:47 10° SW 22:16:48 15° SSW 22:16:48 15° SSW
Cosmos 1408 2.6 22:22:39 41° ESE 22:22:51 42° E 22:25:44 10° NNE
Cosmos 1242 Rocket 2.1 22:23:20 51° SW 22:23:47 63° WNW 22:26:32 10° N
BlueWalker 3 2.8 22:24:27 30° ESE 22:24:27 30° ESE 22:27:12 10° ENE
BREEZE-M DEB (TANK) 3.3 22:20:09 10° WNW 22:24:01 37° N 22:26:03 10° ENE
MINOTAUR 4 R/B 4.0 22:22:30 10° N 22:25:22 55° WNW 22:26:10 38° SW
Cosmos 405 Rocket 4.3 22:25:10 10° NNE 22:28:19 25° ENE 22:29:56 19° ESE
Cosmos 1570 Rocket 4.1 22:26:29 10° NNW 22:31:49 71° WSW 22:34:28 30° S
Cosmos 1300 Rocket 3.4 22:27:52 10° N 22:32:12 89° ESE 22:33:55 36° S
USA 281 3.6 22:28:55 24° S 22:32:46 50° WSW 22:39:09 10° NW
Meteor 1-24 Rocket 4.4 22:30:01 25° SE 22:32:49 42° E 22:38:07 10° NNE
Cosmos 2237 Rocket 3.1 22:27:26 10° NNW 22:32:53 45° NE 22:37:15 15° ESE
Cosmos 1238 4.4 22:30:06 10° NNW 22:33:13 70° W 22:34:07 44° SSW
Cosmos 2322 3.7 22:27:33 10° NNW 22:33:14 72° WSW 22:36:10 29° SSE
H-2A R/B 3.5 22:30:51 10° NE 22:34:14 22° E 22:35:22 20° ESE
ALOS 2 2.6 22:32:43 33° SSE 22:34:37 78° ENE 22:39:02 10° N
Cosmos 371 Rocket 3.8 22:38:27 31° SSE 22:40:06 43° ESE 22:44:39 10° NE
Cosmos 2227 Rocket 3.9 22:38:36 16° ESE 22:40:26 18° E 22:44:08 10° ENE
CZ-3 Stage 3 4.4 22:16:06 10° W 22:40:42 30° SW 22:45:18 23° S
CZ-4C R/B 2.5 22:42:24 31° SSE 22:43:32 35° ESE 22:48:27 10° NE
BREEZE-M DEB (TANK) 3.3 22:45:04 44° SE 22:45:04 44° SE 22:49:21 10° ENE
Cosmos 1703 3.4 22:44:41 41° SE 22:45:33 52° E 22:49:09 10° NNE
Cosmos 1980 4.2 22:40:14 10° NNW 22:45:51 57° ENE 22:49:45 20° SE
Cosmos 1709 Rocket 4.0 22:45:06 27° S 22:48:48 82° E 22:55:12 10° N
Cosmos 2322 Rocket 4.4 22:48:39 10° WNW 22:51:15 13° W 22:53:50 10° WSW
Spot 4 4.2 22:49:10 31° SSW 22:51:16 55° W 22:56:00 10° NNW
NOSS 0 Rocket 3.9 22:48:51 10° NNW 22:55:07 85° WSW 22:58:44 27° SSE
Cosmos 158 Rocket 4.1 22:50:39 10° NNW 22:55:55 63° WSW 22:58:13 32° S
Sich 1 Rocket 4.4 22:55:07 10° N 22:59:19 42° ENE 23:01:19 26° SE
Cosmos 2242 Rocket 3.7 22:57:30 34° SSW 22:59:28 79° W 23:04:04 10° N
Cosmos 2297 Rocket 2.6 22:57:55 30° SSE 23:00:13 46° ESE 23:05:36 10° NE
Meteor 2-5 Rocket 3.9 22:57:47 30° S 23:00:49 69° E 23:06:39 10° NNE
EXPRESS MD2 4.1 22:58:45 10° WNW 22:59:34 20° WNW 22:59:34 20° WNW
Cosmos 1455 4.3 23:00:02 10° NW 23:02:04 15° W 23:03:18 13° WSW
Cosmos 2208 Rocket 4.4 22:58:46 10° NNW 23:03:47 50° WSW 23:05:55 31° SSW
GEOS 3 Rocket 4.2 22:59:49 10° NE 23:04:38 38° ESE 23:06:13 31° SSE
USA 234 4.4 22:58:45 10° ENE 23:04:55 46° N 23:11:04 10° W
Cosmos 1892 3.6 23:06:43 28° ESE 23:07:22 30° E 23:10:29 10° NNE
SL-4 R/B 1.9 23:03:54 10° WNW 23:07:59 89° NNE 23:12:04 11° ESE
Cosmos 773 Rocket 3.9 23:02:53 10° NNW 23:08:03 87° WSW 23:10:31 32° SSE
COSMOS 2428 3.3 23:07:58 10° NW 23:13:21 44° WSW 23:15:45 29° SSW
CENTAUR R/B 3.6 23:12:45 21° SE 23:14:42 25° ESE 23:19:54 10° ENE
Cosmos 2098 Rocket 4.1 23:08:12 10° N 23:14:50 86° W 23:18:28 29° S
COSMOS 2455 2.8 23:12:16 26° SSW 23:15:48 80° ESE 23:21:53 10° NE
NOSS 8 (H) 4.2 23:15:28 49° SSW 23:16:19 82° SE 23:19:22 10° NE
ATLAS CENTAUR R/B 4.0 23:15:01 10° WNW 23:17:18 16° NNW 23:19:39 10° N
Cosmos 1503 Rocket 4.0 23:15:43 32° S 23:18:10 71° ESE 23:23:28 10° NNE
Cosmos 2219 Rocket 3.9 23:14:52 10° NW 23:18:53 20° W 23:21:08 16° SW
Cosmos 1777 Rocket 4.1 23:18:39 33° S 23:20:56 62° ESE 23:26:10 10° NNE
SJ 16-02 3.9 23:18:44 10° W 23:21:23 16° NW 23:24:03 10° NNW
PSLV R/B 3.7 23:27:11 10° N 23:31:24 66° WNW 23:33:06 34° SW
Cosmos 332 Rocket 4.2 23:31:18 32° SSE 23:33:09 49° ESE 23:37:53 10° NNE
Cosmos 304 Rocket 3.8 23:31:07 32° SSW 23:33:21 78° WNW 23:38:09 10° NNE
Cosmos 2263 Rocket 3.9 23:33:49 15° SE 23:36:18 19° E 23:40:08 10° ENE
Cosmos 1174 4.1 23:32:36 10° NW 23:37:44 84° NE 23:39:54 28° SE
Okean 1 Rocket 3.1 23:36:52 10° N 23:41:13 71° E 23:43:05 33° SSE
Cosmos 2181 Rocket 4.1 23:40:11 10° NNW 23:46:19 62° W 23:49:34 28° SSW
Cosmos 1825 1.8 23:47:12 53° S 23:47:56 86° E 23:51:22 10° N
Helios 1A Rocket 4.1 23:46:37 17° ESE 23:48:55 34° ENE 23:52:23 10° N
